GAP2998 RPMZ-RPLL

Flight info

Callsign GAP2998
Flight time 1h 20m
Altitude 37000
Route BURCO1W BURCO W3 IOO/N0459F360 B472 IBAGO
Aircraft A320/M-SDE3FGHIRWY/LB1

Departure

Time 2026-04-14 05:23
Airport Zamboanga International Airport (RPMZ)

Arrival

Time 2026-04-14 06:43
Airport Ninoy Aquino International Airport (RPLL)
Time Latitude Longitude Altitude Speed Heading
2026-04-14 04:58 6.92048 122.06240 65 ft 0 kts 155°
2026-04-14 05:15 6.92047 122.06240 66 ft 0 kts 154°
2026-04-14 05:15 6.92046 122.06242 66 ft 0 kts 139°
2026-04-14 05:15 6.92045 122.06245 66 ft 0 kts 95°
2026-04-14 05:16 6.92049 122.06248 65 ft 1 kts 41°
2026-04-14 05:16 6.92063 122.06252 66 ft 2 kts
2026-04-14 05:16 6.92088 122.06250 66 ft 4 kts 353°
2026-04-14 05:16 6.92121 122.06247 66 ft 5 kts
2026-04-14 05:17 6.92163 122.06250 66 ft 6 kts
2026-04-14 05:17 6.92209 122.06260 66 ft 7 kts 46°
2026-04-14 05:17 6.92222 122.06311 66 ft 8 kts 95°
2026-04-14 05:17 6.92217 122.06372 66 ft 9 kts 94°
2026-04-14 05:18 6.92212 122.06441 66 ft 10 kts 94°
2026-04-14 05:18 6.92207 122.06519 65 ft 11 kts 94°
2026-04-14 05:18 6.92201 122.06602 65 ft 12 kts 93°
2026-04-14 05:18 6.92195 122.06692 65 ft 13 kts 94°
2026-04-14 05:19 6.92188 122.06785 65 ft 13 kts 94°
2026-04-14 05:19 6.92181 122.06883 65 ft 14 kts 94°
2026-04-14 05:19 6.92176 122.06984 65 ft 14 kts 93°
2026-04-14 05:19 6.92179 122.07069 65 ft 10 kts 75°
2026-04-14 05:20 6.92178 122.07128 65 ft 6 kts 158°
2026-04-14 05:20 6.92166 122.07101 65 ft 0 kts 277°
2026-04-14 05:22 6.92171 122.07052 65 ft 32 kts 274°
2026-04-14 05:22 6.92201 122.06597 66 ft 97 kts 274°
2026-04-14 05:22 6.92258 122.05739 67 ft 149 kts 275°
2026-04-14 05:22 6.92327 122.04597 279 ft 171 kts 273°
2026-04-14 05:23 6.92397 122.03421 762 ft 173 kts 273°
2026-04-14 05:23 6.92469 122.02222 1321 ft 176 kts 275°
2026-04-14 05:23 6.92551 122.01002 1870 ft 181 kts 276°
2026-04-14 05:23 6.92649 121.99708 2240 ft 197 kts 275°
2026-04-14 05:24 6.92745 121.98292 2618 ft 214 kts 275°
2026-04-14 05:24 6.92849 121.96746 2913 ft 237 kts 275°
2026-04-14 05:24 6.92964 121.95042 3353 ft 255 kts 275°
2026-04-14 05:24 6.93311 121.93273 3805 ft 269 kts 298°
2026-04-14 05:25 6.94513 121.91911 4567 ft 268 kts 329°
2026-04-14 05:25 6.96210 121.91187 5443 ft 266 kts 342°
2026-04-14 05:25 6.97939 121.90583 6220 ft 269 kts 341°
2026-04-14 05:25 6.99695 121.89950 6995 ft 272 kts 341°
2026-04-14 05:26 7.01473 121.89292 7732 ft 276 kts 340°
2026-04-14 05:26 7.03256 121.88622 8460 ft 278 kts 340°
2026-04-14 05:26 7.05060 121.87941 9150 ft 282 kts 340°
2026-04-14 05:26 7.06905 121.87263 9842 ft 285 kts 345°
2026-04-14 05:27 7.08873 121.87115 10450 ft 288 kts 11°
2026-04-14 05:27 7.10740 121.87837 11003 ft 295 kts 34°
2026-04-14 05:27 7.12305 121.89209 11352 ft 310 kts 44°
2026-04-14 05:27 7.13880 121.90759 11638 ft 327 kts 44°
2026-04-14 05:28 7.15536 121.92378 11932 ft 341 kts 44°
2026-04-14 05:28 7.17270 121.94054 12488 ft 347 kts 44°
2026-04-14 05:28 7.19007 121.95717 13107 ft 349 kts 44°
2026-04-14 05:28 7.20732 121.97362 13716 ft 351 kts 44°
2026-04-14 05:29 7.22514 121.99062 14295 ft 355 kts 44°
2026-04-14 05:29 7.24294 122.00760 14866 ft 358 kts 44°
2026-04-14 05:29 7.26069 122.02453 15439 ft 360 kts 44°
2026-04-14 05:29 7.27860 122.04160 15999 ft 362 kts 44°
2026-04-14 05:30 7.29690 122.05907 16517 ft 366 kts 44°
2026-04-14 05:30 7.31531 122.07661 17051 ft 368 kts 43°
2026-04-14 05:30 7.33556 122.09197 17564 ft 372 kts 30°
2026-04-14 05:30 7.35917 122.10199 18075 ft 377 kts 17°
2026-04-14 05:31 7.38499 122.10665 18571 ft 380 kts
2026-04-14 05:31 7.41092 122.10953 19065 ft 383 kts
2026-04-14 05:31 7.43736 122.11231 19559 ft 386 kts
2026-04-14 05:31 7.46405 122.11513 20045 ft 388 kts
2026-04-14 05:32 7.49095 122.11802 20505 ft 391 kts
2026-04-14 05:32 7.51790 122.12095 20971 ft 393 kts
2026-04-14 05:32 7.54504 122.12392 21424 ft 396 kts
2026-04-14 05:32 7.57213 122.12691 21876 ft 398 kts
2026-04-14 05:33 7.60003 122.12997 22342 ft 400 kts
2026-04-14 05:33 7.62760 122.13303 22785 ft 402 kts
2026-04-14 05:33 7.65568 122.13614 23214 ft 404 kts
2026-04-14 05:34 7.71183 122.14236 24028 ft 410 kts
2026-04-14 05:34 7.74039 122.14554 24443 ft 412 kts
2026-04-14 05:34 7.76896 122.14871 24833 ft 414 kts
2026-04-14 05:34 7.79751 122.15188 25204 ft 417 kts
2026-04-14 05:35 7.82647 122.15510 25548 ft 420 kts
2026-04-14 05:35 7.85563 122.15834 25900 ft 422 kts
2026-04-14 05:35 7.88481 122.16157 26257 ft 424 kts
2026-04-14 05:35 7.91430 122.16486 26598 ft 427 kts
2026-04-14 05:36 7.94395 122.16814 26939 ft 429 kts
2026-04-14 05:36 7.97370 122.17146 27264 ft 431 kts
2026-04-14 05:36 8.00362 122.17479 27572 ft 433 kts
2026-04-14 05:36 8.03370 122.17815 27870 ft 435 kts
2026-04-14 05:37 8.06392 122.18152 28171 ft 438 kts
2026-04-14 05:37 8.09427 122.18490 28473 ft 439 kts
2026-04-14 05:37 8.12466 122.18826 28854 ft 439 kts
2026-04-14 05:37 8.15508 122.19162 29257 ft 439 kts
2026-04-14 05:38 8.18549 122.19498 29636 ft 439 kts
2026-04-14 05:38 8.21551 122.19832 29988 ft 439 kts
2026-04-14 05:38 8.24581 122.20168 30344 ft 439 kts
2026-04-14 05:38 8.27620 122.20508 30730 ft 438 kts
2026-04-14 05:39 8.30614 122.20841 31168 ft 436 kts
2026-04-14 05:39 8.33610 122.21176 31617 ft 434 kts
2026-04-14 05:39 8.36557 122.21504 31979 ft 433 kts
2026-04-14 05:39 8.39558 122.21838 32299 ft 434 kts
2026-04-14 05:40 8.42547 122.22171 32604 ft 434 kts
2026-04-14 05:40 8.45508 122.22501 32947 ft 435 kts
2026-04-14 05:40 8.48532 122.22837 33332 ft 434 kts
2026-04-14 05:40 8.51525 122.23171 33734 ft 433 kts
2026-04-14 05:41 8.54486 122.23501 34129 ft 432 kts
2026-04-14 05:41 8.57463 122.23833 34507 ft 431 kts
2026-04-14 05:41 8.60420 122.24162 34867 ft 430 kts
2026-04-14 05:41 8.63368 122.24493 35205 ft 430 kts
2026-04-14 05:42 8.66313 122.24822 35472 ft 430 kts
2026-04-14 05:42 8.69306 122.25156 35688 ft 432 kts
2026-04-14 05:42 8.72301 122.25491 35889 ft 433 kts
2026-04-14 05:42 8.75289 122.25824 36093 ft 434 kts
2026-04-14 05:43 8.78269 122.26157 36295 ft 435 kts
2026-04-14 05:43 8.81272 122.26493 36490 ft 436 kts
2026-04-14 05:43 8.84326 122.26834 36684 ft 437 kts
2026-04-14 05:43 8.87350 122.27171 36856 ft 438 kts
2026-04-14 05:44 8.93395 122.27847 36866 ft 439 kts
2026-04-14 05:44 8.99455 122.28525 36869 ft 440 kts
2026-04-14 05:45 9.05526 122.29204 36871 ft 440 kts
2026-04-14 05:45 9.11616 122.29885 36871 ft 440 kts
2026-04-14 05:46 9.17592 122.30550 36871 ft 441 kts
2026-04-14 05:46 9.23692 122.31231 36871 ft 440 kts
2026-04-14 05:47 9.29798 122.31914 36872 ft 439 kts
2026-04-14 05:47 9.35898 122.32599 36874 ft 439 kts
2026-04-14 05:48 9.41981 122.33282 36873 ft 439 kts
2026-04-14 05:48 9.48065 122.33963 36875 ft 439 kts
2026-04-14 05:49 9.54144 122.34646 36874 ft 439 kts
2026-04-14 05:49 9.60246 122.35332 36874 ft 439 kts
2026-04-14 05:50 9.66357 122.36021 36877 ft 439 kts
2026-04-14 05:50 9.72426 122.36704 36879 ft 439 kts
2026-04-14 05:51 9.78510 122.37382 36881 ft 439 kts
2026-04-14 05:51 9.84606 122.38062 36880 ft 439 kts
2026-04-14 05:52 9.90694 122.38745 36880 ft 438 kts
2026-04-14 05:52 9.96756 122.39426 36882 ft 438 kts
2026-04-14 05:53 10.02811 122.40104 36879 ft 439 kts
2026-04-14 05:53 10.08917 122.40785 36881 ft 439 kts
2026-04-14 05:54 10.15001 122.41464 36878 ft 439 kts
2026-04-14 05:54 10.21076 122.42143 36878 ft 439 kts
2026-04-14 05:55 10.27170 122.42828 36878 ft 439 kts
2026-04-14 05:55 10.33249 122.43514 36873 ft 439 kts
2026-04-14 05:56 10.39256 122.44190 36865 ft 439 kts
2026-04-14 05:56 10.45365 122.44875 36862 ft 440 kts
2026-04-14 05:57 10.51464 122.45557 36719 ft 441 kts
2026-04-14 05:57 10.54489 122.45896 36427 ft 440 kts
2026-04-14 05:57 10.57549 122.46240 36137 ft 440 kts
2026-04-14 05:58 10.60600 122.46583 35895 ft 439 kts
2026-04-14 05:58 10.63610 122.46923 35875 ft 439 kts
2026-04-14 05:58 10.69713 122.47612 35869 ft 439 kts
2026-04-14 05:59 10.75827 122.48269 35863 ft 440 kts
2026-04-14 05:59 10.81971 122.48164 35865 ft 443 kts 355°
2026-04-14 06:00 10.88043 122.46971 35872 ft 445 kts 345°
2026-04-14 06:00 10.93862 122.44772 35882 ft 447 kts 338°
2026-04-14 06:01 10.99580 122.42273 35900 ft 447 kts 338°
2026-04-14 06:01 11.05312 122.39778 35914 ft 447 kts 338°
2026-04-14 06:02 11.11070 122.37288 35916 ft 447 kts 338°
2026-04-14 06:02 11.16796 122.34822 35934 ft 448 kts 338°
2026-04-14 06:03 11.22568 122.32330 35949 ft 448 kts 338°
2026-04-14 06:04 11.31163 122.28610 35956 ft 448 kts 338°
2026-04-14 06:04 11.36923 122.26112 35960 ft 449 kts 338°
2026-04-14 06:05 11.42663 122.23623 35958 ft 449 kts 338°
2026-04-14 06:05 11.48431 122.21122 35948 ft 449 kts 338°
2026-04-14 06:06 11.54170 122.18632 35945 ft 449 kts 338°
2026-04-14 06:06 11.59946 122.16124 35933 ft 449 kts 338°
2026-04-14 06:07 11.63771 122.14462 35922 ft 449 kts 338°
2026-04-14 06:07 11.71481 122.11112 35916 ft 449 kts 338°
2026-04-14 06:08 11.77245 122.08605 35904 ft 449 kts 338°
2026-04-14 06:08 11.82960 122.06120 35892 ft 448 kts 338°
2026-04-14 06:09 11.88714 122.03617 35885 ft 448 kts 338°
2026-04-14 06:09 11.94485 122.01104 35887 ft 449 kts 338°
2026-04-14 06:10 12.00216 121.98608 35885 ft 449 kts 338°
2026-04-14 06:10 12.05991 121.96091 35889 ft 449 kts 338°
2026-04-14 06:11 12.11716 121.93596 35889 ft 448 kts 338°
2026-04-14 06:11 12.17488 121.91090 35889 ft 448 kts 338°
2026-04-14 06:12 12.23235 121.88586 35889 ft 448 kts 338°
2026-04-14 06:12 12.28943 121.86089 35889 ft 448 kts 338°
2026-04-14 06:13 12.34690 121.83577 35890 ft 449 kts 338°
2026-04-14 06:13 12.40460 121.81059 35890 ft 449 kts 338°
2026-04-14 06:14 12.46197 121.78555 35891 ft 449 kts 338°
2026-04-14 06:14 12.51970 121.76030 35892 ft 449 kts 338°
2026-04-14 06:15 12.57710 121.73516 35893 ft 448 kts 338°
2026-04-14 06:15 12.63434 121.71007 35893 ft 447 kts 338°
2026-04-14 06:16 12.69177 121.68488 35895 ft 448 kts 338°
2026-04-14 06:16 12.74886 121.65984 35897 ft 448 kts 338°
2026-04-14 06:17 12.80621 121.63467 35903 ft 448 kts 338°
2026-04-14 06:17 12.86393 121.60932 35908 ft 449 kts 338°
2026-04-14 06:18 12.92106 121.58421 35909 ft 448 kts 338°
2026-04-14 06:18 12.97847 121.55896 35835 ft 448 kts 338°
2026-04-14 06:18 13.00709 121.54638 35135 ft 450 kts 338°
2026-04-14 06:19 13.03601 121.53365 34486 ft 449 kts 339°
2026-04-14 06:19 13.06471 121.52103 33847 ft 448 kts 338°
2026-04-14 06:19 13.09348 121.50836 33215 ft 447 kts 339°
2026-04-14 06:19 13.12182 121.49591 32592 ft 446 kts 339°
2026-04-14 06:20 13.15046 121.48335 32016 ft 446 kts 339°
2026-04-14 06:20 13.17900 121.47083 31403 ft 446 kts 339°
2026-04-14 06:20 13.20790 121.45814 30762 ft 447 kts 339°
2026-04-14 06:20 13.23654 121.44553 30119 ft 447 kts 339°
2026-04-14 06:21 13.26512 121.43293 29476 ft 447 kts 339°
2026-04-14 06:21 13.29364 121.42035 28822 ft 447 kts 339°
2026-04-14 06:21 13.32182 121.40792 28139 ft 447 kts 339°
2026-04-14 06:21 13.35052 121.39525 27438 ft 447 kts 338°
2026-04-14 06:22 13.37885 121.38273 26962 ft 441 kts 339°
2026-04-14 06:22 13.40701 121.37026 26471 ft 436 kts 339°
2026-04-14 06:22 13.43482 121.35795 25988 ft 432 kts 339°
2026-04-14 06:22 13.46224 121.34579 25513 ft 428 kts 338°
2026-04-14 06:23 13.48936 121.33366 25040 ft 423 kts 338°
2026-04-14 06:23 13.51647 121.32154 24570 ft 419 kts 338°
2026-04-14 06:23 13.54299 121.30976 24106 ft 416 kts 338°
2026-04-14 06:23 13.56946 121.29804 23635 ft 412 kts 338°
2026-04-14 06:24 13.59585 121.28636 23158 ft 409 kts 338°
2026-04-14 06:24 13.62190 121.27483 22689 ft 405 kts 338°
2026-04-14 06:24 13.64755 121.26348 22225 ft 402 kts 339°
2026-04-14 06:24 13.67310 121.25216 21771 ft 399 kts 339°
2026-04-14 06:25 13.69840 121.24095 21313 ft 396 kts 339°
2026-04-14 06:25 13.72360 121.22978 20821 ft 393 kts 339°
2026-04-14 06:25 13.74890 121.21857 20361 ft 391 kts 339°
2026-04-14 06:25 13.77358 121.20762 19898 ft 388 kts 339°
2026-04-14 06:26 13.79847 121.19659 19432 ft 386 kts 339°
2026-04-14 06:26 13.82292 121.18572 18960 ft 384 kts 339°
2026-04-14 06:26 13.84771 121.17472 18483 ft 381 kts 339°
2026-04-14 06:26 13.87183 121.16402 18028 ft 379 kts 339°
2026-04-14 06:27 13.89597 121.15331 17560 ft 377 kts 339°
2026-04-14 06:27 13.91989 121.14269 17077 ft 376 kts 339°
2026-04-14 06:27 13.94390 121.13273 16601 ft 373 kts 342°
2026-04-14 06:27 13.96836 121.12494 16147 ft 370 kts 347°
2026-04-14 06:28 13.99344 121.11929 15675 ft 367 kts 351°
2026-04-14 06:28 14.01854 121.11448 15217 ft 364 kts 351°
2026-04-14 06:28 14.04334 121.10984 14736 ft 362 kts 351°
2026-04-14 06:28 14.06825 121.10518 14267 ft 360 kts 351°
2026-04-14 06:29 14.09278 121.10056 13802 ft 358 kts 351°
2026-04-14 06:29 14.11735 121.09592 13353 ft 356 kts 351°
2026-04-14 06:29 14.14164 121.09133 12892 ft 354 kts 351°
2026-04-14 06:29 14.16591 121.08673 12433 ft 352 kts 351°
2026-04-14 06:30 14.18998 121.08215 11983 ft 350 kts 351°
2026-04-14 06:30 14.21383 121.07761 11562 ft 348 kts 351°
2026-04-14 06:30 14.23772 121.07306 11111 ft 347 kts 351°
2026-04-14 06:30 14.26161 121.06852 10663 ft 344 kts 351°
2026-04-14 06:31 14.28501 121.06407 10268 ft 340 kts 351°
2026-04-14 06:31 14.30788 121.05971 10167 ft 325 kts 351°
2026-04-14 06:31 14.32973 121.05555 10087 ft 311 kts 351°
2026-04-14 06:31 14.35069 121.05154 10009 ft 297 kts 351°
2026-04-14 06:32 14.37064 121.04773 9765 ft 291 kts 351°
2026-04-14 06:32 14.39062 121.04392 9415 ft 289 kts 351°
2026-04-14 06:32 14.41034 121.04016 9083 ft 287 kts 351°
2026-04-14 06:32 14.43015 121.03639 8765 ft 285 kts 351°
2026-04-14 06:33 14.44964 121.03268 8431 ft 283 kts 351°
2026-04-14 06:33 14.46880 121.02904 8112 ft 281 kts 351°
2026-04-14 06:33 14.48805 121.02525 7783 ft 279 kts 347°
2026-04-14 06:34 14.51661 121.00007 7109 ft 282 kts 293°
2026-04-14 06:34 14.52312 120.98100 6806 ft 280 kts 290°
2026-04-14 06:34 14.52922 120.96213 6499 ft 278 kts 290°
2026-04-14 06:34 14.53543 120.94328 6193 ft 277 kts 290°
2026-04-14 06:35 14.54169 120.92469 5887 ft 275 kts 290°
2026-04-14 06:35 14.54806 120.90604 5574 ft 273 kts 291°
2026-04-14 06:35 14.55438 120.88766 5266 ft 272 kts 291°
2026-04-14 06:35 14.56068 120.86942 4963 ft 264 kts 291°
2026-04-14 06:36 14.56669 120.85198 4679 ft 253 kts 291°
2026-04-14 06:36 14.57249 120.83519 4399 ft 244 kts 291°
2026-04-14 06:36 14.57919 120.81980 4101 ft 234 kts 309°
2026-04-14 06:36 14.59093 120.80892 3858 ft 220 kts 333°
2026-04-14 06:37 14.60504 120.80427 3613 ft 209 kts 355°
2026-04-14 06:37 14.61923 120.80543 3394 ft 197 kts 18°
2026-04-14 06:37 14.63098 120.81116 3331 ft 178 kts 37°
2026-04-14 06:37 14.63937 120.81952 3272 ft 159 kts 55°
2026-04-14 06:38 14.64452 120.82917 3246 ft 154 kts 71°
2026-04-14 06:38 14.64685 120.83993 3220 ft 153 kts 86°
2026-04-14 06:38 14.64617 120.85097 3182 ft 153 kts 102°
2026-04-14 06:38 14.64260 120.86126 3117 ft 154 kts 117°
2026-04-14 06:39 14.63671 120.87053 3037 ft 154 kts 128°
2026-04-14 06:39 14.62951 120.87887 2957 ft 155 kts 130°
2026-04-14 06:39 14.62228 120.88699 2870 ft 154 kts 130°
2026-04-14 06:39 14.61507 120.89521 2764 ft 154 kts 130°
2026-04-14 06:40 14.60786 120.90359 2492 ft 154 kts 130°
2026-04-14 06:40 14.60084 120.91180 2281 ft 150 kts 130°
2026-04-14 06:40 14.59399 120.91985 2090 ft 151 kts 130°
2026-04-14 06:40 14.58707 120.92802 1889 ft 150 kts 130°
2026-04-14 06:41 14.58017 120.93618 1712 ft 149 kts 130°
2026-04-14 06:41 14.57360 120.94392 1490 ft 138 kts 131°
2026-04-14 06:41 14.56736 120.95129 1308 ft 135 kts 131°
2026-04-14 06:41 14.56151 120.95888 1128 ft 135 kts 124°
2026-04-14 06:42 14.55615 120.96685 974 ft 135 kts 126°
2026-04-14 06:42 14.55049 120.97468 752 ft 134 kts 130°
2026-04-14 06:42 14.54443 120.98202 551 ft 134 kts 132°
2026-04-14 06:42 14.53797 120.98903 428 ft 135 kts 133°
2026-04-14 06:43 14.53141 120.99604 299 ft 135 kts 133°
2026-04-14 06:43 14.52476 121.00276 145 ft 134 kts 134°
2026-04-14 06:43 14.51827 121.00954 82 ft 115 kts 134°
2026-04-14 06:43 14.51478 121.01327 82 ft 44 kts 136°
2026-04-14 06:44 14.51271 121.01539 82 ft 38 kts 131°
2026-04-14 06:44 14.51114 121.01698 81 ft 28 kts 137°
2026-04-14 06:44 14.51046 121.01765 82 ft 8 kts 139°
2026-04-14 06:44 14.50995 121.01757 81 ft 8 kts 231°
2026-04-14 06:45 14.50957 121.01704 82 ft 9 kts 238°
2026-04-14 06:45 14.50927 121.01638 82 ft 10 kts 244°
2026-04-14 06:45 14.50890 121.01569 82 ft 11 kts 241°
2026-04-14 06:45 14.50853 121.01498 82 ft 11 kts 242°
2026-04-14 06:46 14.50817 121.01434 81 ft 4 kts 240°
2026-04-14 06:46 14.50801 121.01403 82 ft 4 kts 241°
2026-04-14 06:46 14.50784 121.01372 81 ft 4 kts 249°
2026-04-14 06:47 14.50798 121.01346 82 ft 4 kts 323°
2026-04-14 06:47 14.50827 121.01330 82 ft 4 kts 331°
2026-04-14 06:47 14.50857 121.01314 82 ft 4 kts 332°
2026-04-14 06:47 14.50863 121.01311 82 ft 0 kts 330°
2026-04-14 06:48 14.50867 121.01308 81 ft 0 kts 330°
2026-04-14 06:48 14.50868 121.01307 81 ft 0 kts 330°